This is the latest recevied weather packets stored in our database for station/object M0TJX-1. If no packets are shown the sender has not sent any weather packets the latest 1 day(s).
| Time | Temp. | Humidity | Pressure | Rain* | Wind** | Luminosity | Snow |
|---|---|---|---|---|---|---|---|
| 1777976895 | 15° C | 65% | 1014.3 hPa | 0 mm | 1.79 m/s, 12° | - | - |
| 1777975995 | 14.44° C | 69% | 1014.2 hPa | 0 mm | 0.89 m/s, 319° | - | - |
| 1777975095 | 13.33° C | 70% | 1014.3 hPa | 0 mm | 1.79 m/s, 340° | - | - |
| 1777974195 | 13.33° C | 69% | 1014.2 hPa | 0 mm | 1.79 m/s, 83° | - | - |
| 1777973295 | 12.78° C | 70% | 1014.1 hPa | 0 mm | 2.24 m/s, 41° | - | - |
| 1777972395 | 12.22° C | 73% | 1014.2 hPa | 0 mm | 1.79 m/s, 15° | - | - |
| 1777971495 | 11.67° C | 77% | 1014.4 hPa | 0 mm | 0.89 m/s, 30° | - | - |
| 1777970595 | 11.11° C | 77% | 1014.7 hPa | 0 mm | 0.89 m/s, 138° | - | - |
| 1777969695 | 10.56° C | 82% | 1014.6 hPa | 0 mm | 1.34 m/s, 5° | - | - |
| 1777968795 | 10° C | 83% | 1014.6 hPa | 0 mm | 0.89 m/s, 17° | - | - |
| 1777967895 | 9.44° C | 84% | 1014.6 hPa | 0 mm | 1.34 m/s, 33° | - | - |
| 1777966995 | 9.44° C | 87% | 1014.5 hPa | 0 mm | 0.89 m/s, 5° | - | - |
| 1777966095 | 8.89° C | 88% | 1014.6 hPa | 0 mm | 0.89 m/s, 43° | - | - |
| 1777965195 | 8.89° C | 89% | 1014.6 hPa | 0 mm | 1.34 m/s, 32° | - | - |
| 1777964295 | 8.89° C | 91% | 1014.7 hPa | 0 mm | 1.34 m/s, 22° | - | - |
| 1777963395 | 8.33° C | 94% | 1014.7 hPa | 0 mm | 0 m/s | - | - |
| 1777962495 | 7.78° C | 94% | 1014.6 hPa | 0 mm | 0 m/s | - | - |
| 1777961595 | 7.78° C | 94% | 1014.6 hPa | 0 mm | 0 m/s | - | - |
| 1777960695 | 7.78° C | 94% | 1014.7 hPa | 0 mm | 0 m/s | - | - |
| 1777959795 | 7.78° C | 94% | 1014.5 hPa | 0 mm | 0 m/s | - | - |
| 1777958895 | 7.78° C | 94% | 1014.6 hPa | 0 mm | 0 m/s | - | - |
* Rain latest hour (hover to see other rain measurements)
** Current wind speed in m/s (hover to see current wind gust speed)